OBJECT A

Satellite information

Favourite Embed

Satellite Type and Status

UNKNOWNIN ORBIT

Key statistics

Satellite OBJECT A at a glance.

Uptime

109

Days in orbit

Revolutions

≈ 14.0

Per day

Orbit

LEO

Low Earth Orbit

Inclination

45.0

Latest

Satellite identification and parameters

Extended collection of information and parameters for OBJECT A.

Object identification

Identified? True

Debris? False

Object name: OBJECT A

International designator: 2025-105A

Object number (NORAD): 64058

Object ID (CCSDS): 64058

Country: PEOPLES REPUBLIC OF CHINA (PRC)

Current information (Y/N): Y

RCS size: MEDIUM

Orbital parameters

Period: 102.931 minutes

Inclination: 44.9818 deg

SMA: 7275.396 km

Apoapsis: 903.734 km

Periapsis: 890.788 km

RAAN: 214.2833 deg

Eccentricy: 0.00088976

Argument of periapsis: 109.2565 deg

Mean anomaly: 250.923 deg

Mean motion: 13.99000269 rev/day

Mean motion (dot): 0.00000095 rev/day2

B* drag term: 0.00015382827 1/REarth

Two-line elements (TLE)

Creation date: Sept. 4, 2025, 10:13 a.m.

Reference frame: TEME

Reference center: EARTH

Epoch: Sept. 4, 2025, 6:41 a.m. UTC

TLE line 0: 0 OBJECT A

TLE line 1: 1 64058U 25105A 25247.27876778 .00000095 00000-0 15383-3 0 9995

TLE line 2: 2 64058 44.9818 214.2833 0008898 109.2565 250.9230 13.99000269 15155

Live tracking on map

Real-time ground track for satellite OBJECT A.

In-orbit conjunctions

There are no conjunctions computed for OBJECT A, at the moment. Check back to stay up to date, as we update our databases every day.

Go to all conjunctions

Associated space launch

4 small satellites for LEO Internet of Things (IoT) communication purposes.

OBJECT A was lifted into orbit during the mission ‘Ceres-1S | Tianqi 16-18 & 20’, on board a Ceres-1S space rocket.

The launch took place on May 19, 2025, 7:38 a.m. from Oriental Spaceport mobile launch ship.

For more information about the launch, click the button.

Launch to space Ceres-1S | Tianqi 16-18 & 20
Ceres-1S | Tianqi 16-18 & 20

Agency: N/A

Status: Launch Successful

Launch date: May 19, 2025, 7:38 a.m. UTC

Rocket: Ceres-1S

Launch pad: Oriental Spaceport mobile launch ship

Location: Sea Launch

...

Latest news about this satellite

News about space launch
China launches classified comms satellite, conducts commercial sea launch

China has continued an uptick in launch activity with a Long March 7A mission to geosynchronous orbit and sea launch of a Ceres-1 solid rocket. The post China launches classified comms satellite, conducts commercial sea launch appeared first on SpaceNews...


Newsletter sign-up

Weekly statistics, charts and insights to help you stay on top of the space industry.